Location: Wanzleben
(52.0609°N, 11.4408°E)
Time: 02:18:54
(UTC+00:00)

Envisat - Pass Details

Date: 03 December 2020
Orbit: 764 x 766 km, 98.1° (Epoch: 20 January)

Event Time Altitude Azimuth Distance (km) Brightness Sun altitude
Rises 04:02:32 0° 24° (NNE) 3,247 6.5 -26.7°
Reaches altitude 10° 04:05:25 10° 41° (NE) 2,315 5.9 -26.2°
Maximum altitude 04:09:14 21° 89° (E) 1,678 5.5 -25.6°
Drops below altitude 10° 04:13:01 10° 138° (SE) 2,301 6.0 -25.0°
Sets 04:15:52 0° 154° (SSE) 3,221 6.6 -24.6°
